Wind_Speed
33 30 29 31 29 25 24 23 24 22 22 22 22 21 20 18 16 15 17 17 16 15 14 15 17 15 18 19 19 19 19 20 21 22 20 17 21 24
42 38 36 35 32 28 26 27 26 24 25 25 24 24 23 20 19 17 17 17 17 19 21 20 21 22 20 18 19 20 20 22 22 24 25 25 27 27
43 41 37 35 31 29 28 28 28 27 26 26 26 25 23 21 20 20 21 20 20 19 21 22 20 19 15 18 21 23 24 24 26 28 30 31 32 34
43 40 34 31 30 29 29 30 29 30 31 30 27 25 24 25 24 22 21 21 21 21 21 21 19 21 24 28 29 29 27 27 29 32 34 36 37 38
28 30 27 25 28 27 28 30 33 33 34 32 31 29 27 26 27 26 23 22 22 22 18 19 21 25 27 31 33 34 34 34 36 38 38 40 42 44
22 23 26 26 26 24 27 28 30 31 35 37 36 36 32 30 29 27 27 27 28 29 27 27 31 34 35 38 38 39 40 38 38 40 41 43 44 45
23 25 25 26 27 25 25 26 30 33 33 37 39 40 38 34 30 31 32 34 34 35 36 38 40 39 42 38 39 41 44 43 45 48 48 49 49 50
23 20 17 18 17 17 22 27 28 31 34 37 40 43 44 43 42 42 41 40 41 43 44 45 43 42 45 44 39 42 46 43 44 46 48 50 53 54
27 28 28 30 23 22 22 22 25 29 31 33 36 41 45 48 47 49 47 48 49 49 48 47 44 43 38 39 41 48 49 50 50 50 51 54 57 59
33 33 33 32 33 32 30 30 28 27 31 32 36 39 40 42 47 50 52 53 53 56 53 48 47 49 51 51 49 48 51 51 51 55 57 59 62 63
42 43 40 41 43 41 39 34 34 38 36 35 37 40 39 40 45 49 52 54 56 56 50 50 48 48 52 50 44 49 50 56 58 59 62 64 69 71
45 51 52 52 53 51 48 45 46 48 44 43 41 40 41 42 41 44 44 48 51 49 47 44 45 49 55 56 50 51 61 57 60 64 62 67 71 76
47 48 50 50 51 52 53 53 55 56 56 53 49 43 40 43 46 48 46 46 46 45 48 48 54 56 55 58 61 60 64 62 71 71 69 69 74 79
43 50 51 52 54 55 55 56 56 56 58 58 55 51 44 38 42 45 46 48 55 54 53 56 48 51 56 63 65 65 69 71 69 71 72 79 81 83
44 44 47 47 48 51 54 57 59 60 61 61 59 58 51 47 53 51 53 54 57 56 56 51 56 62 64 66 69 68 68 72 74 77 76 76 84 87
46 47 48 49 50 51 52 53 56 61 63 63 63 60 59 61 62 59 64 66 67 69 68 67 69 69 70 69 71 73 75 79 83 87 93 97 99 99
47 48 49 51 52 53 55 57 57 57 60 62 62 63 66 67 72 70 71 71 72 74 79 69 71 74 77 82 83 85 90 92 92 92 94 98 101 104
45 48 50 51 53 56 59 62 64 64 65 66 64 65 64 68 73 78 81 83 83 82 83 83 80 80 83 87 89 89 91 93 94 99 102 104 108 110
45 47 51 54 58 62 64 65 68 72 75 74 70 70 68 67 67 71 77 82 86 87 88 88 89 91 91 91 92 94 96 96 99 102 106 105 106 105
47 52 57 59 60 61 54 50 50 58 65 69 71 72 72 71 71 72 73 74 77 81 83 86 88 90 94 98 100 101 102 101 100 101 101 103 105 105
51 54 55 55 53 49 44 36 31 37 47 54 60 66 67 67 68 69 70 71 72 75 78 81 82 83 84 87 87 88 90 91 92 94 96 93 91 85
51 52 52 51 45 40 37 28 24 35 37 36 41 46 51 58 63 66 69 70 70 71 71 73 75 78 79 81 83 86 89 89 87 82 78 77 78 82
47 47 50 47 41 36 32 27 31 38 40 41 46 43 43 39 45 49 48 45 47 51 56 61 60 63 65 65 64 63 64 69 73 72 75 75 79 85
Wind_Direction
252 256 263 268 269 267 260 247 257 267 270 273 273 276 278 276 274 263 252 263 263 271 276 284 292 291 297 296 292 293 298 304 301 301 304 297 301 302
243 250 260 262 262 259 254 249 246 256 268 273 273 270 269 273 276 272 267 254 272 276 279 293 306 293 299 298 297 295 290 295 298 296 296 292 296 296
247 250 258 257 248 248 247 243 245 248 256 265 273 273 264 263 265 270 264 253 266 269 276 278 286 283 296 300 301 299 300 300 302 299 292 292 293 298
254 253 247 247 240 240 242 240 245 250 252 258 267 274 268 262 262 263 267 256 261 263 271 286 288 302 283 298 295 292 290 288 295 296 293 290 291 293
234 237 237 237 240 245 247 243 239 243 249 254 255 262 270 264 263 260 256 256 256 259 268 281 287 297 300 298 295 295 296 295 296 297 294 290 288 289
227 240 238 232 236 239 246 248 245 246 249 252 252 252 258 263 258 249 241 247 251 250 263 283 289 292 296 298 296 290 289 289 289 289 290 290 291 292
249 262 251 247 246 246 250 252 248 247 249 247 251 252 252 255 249 248 247 253 256 259 267 283 289 292 293 291 291 289 290 287 287 287 287 288 289 290
242 233 228 229 239 252 257 254 254 254 251 251 248 251 251 253 252 256 261 267 269 274 273 281 290 293 292 291 291 293 293 290 292 293 292 291 292 293
258 261 267 271 255 255 260 260 257 260 260 256 254 254 254 252 257 260 265 266 269 273 277 282 288 294 296 296 292 289 290 289 289 291 292 292 290 291
263 265 269 264 268 270 263 261 261 266 267 267 264 262 261 260 258 262 265 268 270 272 277 283 280 282 283 290 293 288 287 286 284 288 291 293 294 291
270 273 273 269 271 271 267 265 269 273 274 276 277 270 266 267 264 264 266 268 269 270 274 278 281 285 289 291 291 292 288 287 286 290 292 292 294 293
270 260 265 269 273 273 271 270 269 268 269 272 275 270 264 259 263 267 269 270 270 273 274 280 280 280 284 284 284 283 289 283 280 287 288 290 292 293
275 274 274 273 271 271 272 270 264 265 266 267 266 272 263 261 259 257 258 261 265 274 268 265 274 277 279 277 273 279 280 281 285 287 289 290 291 293
286 275 269 267 268 269 268 267 266 267 265 264 262 261 260 259 262 261 260 259 259 264 265 265 270 277 277 276 274 279 283 283 284 281 282 287 290 290
293 293 286 278 274 270 268 267 266 264 263 262 262 259 255 236 248 248 259 261 259 262 261 267 258 264 267 271 273 276 276 277 283 286 282 283 288 288
291 287 285 283 282 280 278 273 270 268 264 261 258 257 252 247 244 248 250 250 254 256 258 262 262 263 266 269 271 273 275 277 278 281 284 285 286 288
290 283 280 281 281 280 276 274 270 267 266 265 262 254 250 249 247 248 249 253 252 256 258 260 264 266 265 265 268 270 272 275 277 280 281 282 284 286
281 283 286 288 287 286 283 278 273 267 264 262 260 260 256 251 248 249 249 251 253 256 259 262 259 262 265 269 271 273 274 275 277 278 281 282 283 285
289 293 295 295 293 291 288 281 271 265 261 259 257 256 256 257 255 253 253 254 256 259 260 260 261 262 264 269 268 269 270 273 275 277 281 285 289 295
292 296 303 305 304 301 295 286 272 263 259 257 256 256 256 257 259 260 261 259 259 260 261 262 262 263 265 266 268 270 273 277 281 283 286 287 289 291
296 303 311 314 311 309 305 298 279 264 259 255 255 256 258 258 259 259 260 261 262 262 262 264 265 267 268 270 272 274 276 279 282 283 285 290 291 294
299 308 315 318 315 315 311 291 264 266 268 267 263 261 261 262 263 263 263 263 263 264 264 266 267 267 269 272 275 275 279 282 287 289 288 290 293 293
306 313 319 319 313 315 310 304 271 269 274 268 267 268 270 272 276 272 267 266 268 266 266 268 269 272 275 277 277 279 280 286 286 291 293 294 294 294
Height
10973 10976 10979 10981 10982 10983 10985 10987 10989 10990 10990 10991 10991 10990 10991 10990 10989 10989 10988 10988 10987 10987 10987 10987 10987 10986 10986 10985 10985 10984 10982 10980 10979 10977 10976 10974 10973 10971
10966 10969 10973 10974 10975 10975 10977 10979 10982 10984 10985 10985 10986 10985 10985 10985 10984 10984 10984 10984 10983 10983 10982 10983 10982 10981 10980 10980 10979 10978 10976 10975 10973 10972 10970 10968 10966 10965
10958 10961 10964 10966 10967 10967 10969 10971 10973 10975 10977 10979 10979 10979 10979 10979 10979 10979 10980 10979 10979 10978 10978 10978 10978 10976 10975 10975 10974 10972 10970 10969 10966 10965 10963 10961 10959 10956
10951 10954 10957 10958 10958 10960 10961 10963 10965 10966 10969 10971 10972 10972 10972 10973 10972 10973 10973 10974 10973 10972 10972 10971 10971 10970 10969 10968 10967 10965 10963 10961 10958 10956 10954 10952 10949 10946
10943 10945 10947 10950 10950 10953 10955 10954 10955 10957 10959 10962 10964 10966 10965 10964 10965 10965 10966 10967 10966 10966 10965 10964 10963 10962 10960 10959 10957 10956 10954 10952 10949 10946 10943 10941 10938 10936
10937 10939 10940 10941 10942 10944 10945 10946 10948 10949 10950 10952 10955 10958 10958 10958 10958 10958 10958 10958 10958 10957 10957 10956 10954 10952 10951 10949 10947 10945 10944 10941 10938 10935 10932 10929 10927 10924
10931 10932 10933 10935 10936 10936 10937 10938 10939 10940 10941 10943 10945 10947 10950 10951 10951 10951 10950 10949 10949 10948 10948 10946 10944 10942 10940 10938 10937 10935 10933 10931 10926 10923 10919 10916 10913 10910
10927 10928 10928 10928 10928 10928 10929 10930 10931 10931 10932 10933 10935 10937 10939 10940 10942 10942 10941 10941 10940 10939 10938 10937 10934 10930 10928 10926 10924 10923 10920 10918 10914 10909 10906 10903 10900 10895
10922 10923 10923 10923 10923 10922 10922 10923 10922 10923 10923 10924 10924 10926 10929 10930 10931 10929 10930 10929 10927 10926 10926 10926 10924 10921 10916 10914 10912 10910 10907 10905 10899 10895 10892 10888 10883 10879
10912 10913 10914 10914 10914 10915 10915 10916 10914 10913 10914 10915 10915 10916 10918 10920 10919 10917 10916 10915 10914 10912 10914 10913 10910 10908 10906 10903 10899 10895 10893 10889 10884 10881 10877 10872 10867 10863
10902 10903 10902 10902 10902 10904 10907 10906 10906 10903 10904 10904 10904 10904 10906 10906 10906 10904 10902 10902 10900 10900 10901 10900 10896 10894 10892 10889 10885 10880 10878 10874 10868 10866 10861 10856 10850 10844
10890 10891 10891 10889 10889 10892 10893 10894 10892 10890 10892 10892 10893 10892 10892 10893 10894 10892 10891 10887 10887 10888 10888 10886 10883 10881 10877 10875 10870 10866 10864 10859 10852 10849 10845 10838 10831 10825
10875 10876 10875 10875 10876 10876 10877 10876 10876 10875 10877 10877 10878 10878 10878 10878 10879 10880 10878 10877 10875 10874 10873 10872 10869 10866 10862 10857 10853 10851 10847 10841 10837 10831 10825 10819 10813 10806
10864 10863 10862 10861 10860 10860 10859 10859 10860 10858 10858 10860 10862 10863 10865 10866 10865 10865 10865 10863 10861 10859 10860 10860 10859 10851 10846 10840 10837 10834 10832 10827 10820 10812 10806 10801 10795 10788
10846 10845 10843 10843 10843 10842 10841 10840 10840 10840 10840 10841 10843 10847 10849 10850 10849 10849 10849 10848 10846 10846 10846 10844 10840 10835 10830 10825 10820 10818 10814 10808 10803 10796 10788 10781 10775 10767
10834 10830 10827 10826 10824 10823 10821 10822 10822 10820 10822 10822 10823 10827 10828 10831 10832 10831 10829 10828 10828 10827 10829 10827 10825 10820 10814 10808 10804 10800 10794 10791 10785 10779 10769 10761 10754 10746
10823 10819 10816 10812 10810 10808 10805 10804 10804 10803 10801 10802 10802 10805 10807 10808 10810 10811 10811 10810 10809 10808 10807 10807 10807 10801 10795 10790 10786 10781 10777 10771 10767 10759 10751 10743 10734 10726
10809 10804 10801 10798 10794 10790 10786 10784 10783 10783 10781 10780 10782 10783 10785 10786 10787 10788 10788 10787 10790 10788 10785 10785 10785 10782 10777 10771 10766 10762 10756 10751 10746 10736 10729 10722 10712 10702
10793 10789 10785 10781 10775 10769 10761 10755 10752 10752 10755 10757 10759 10760 10762 10763 10764 10765 10766 10767 10767 10766 10765 10762 10761 10760 10757 10755 10750 10741 10734 10729 10723 10715 10704 10696 10686 10677
10778 10773 10765 10760 10753 10742 10733 10726 10722 10723 10728 10733 10735 10737 10740 10743 10744 10743 10744 10747 10745 10744 10742 10740 10739 10739 10736 10730 10724 10719 10713 10706 10699 10691 10684 10675 10668 10660
10762 10756 10749 10742 10731 10720 10712 10709 10708 10707 10708 10711 10714 10718 10720 10721 10720 10721 10722 10723 10724 10722 10722 10720 10719 10717 10712 10707 10704 10699 10692 10686 10680 10673 10665 10657 10648 10637
10749 10741 10734 10728 10721 10712 10704 10700 10699 10696 10697 10698 10699 10700 10700 10700 10701 10702 10703 10702 10702 10702 10701 10699 10697 10693 10691 10688 10684 10678 10674 10668 10660 10652 10645 10636 10627 10618
10735 10728 10721 10715 10709 10703 10698 10694 10691 10689 10689 10689 10688 10687 10686 10686 10686 10686 10685 10684 10683 10682 10680 10679 10675 10673 10670 10667 10663 10659 10654 10649 10641 10634 10625 10617 10609 10597